Location: Laura�t
(43.9341°N, 0.2497°E)
Time: 23:27:39
(UTC+00:00)

Cosmos 1470 Rocket - Pass Details

Date: 03 March 2021
Orbit: 603 x 634 km, 82.5° (Epoch: 17 April)

Event Time Altitude Azimuth Distance (km) Brightness Sun altitude
Rises 18:34:09 0° 176° (S) 2,916 7.0 -8.7°
Reaches altitude 10° 18:36:24 10° 172° (S) 2,011 6.1 -9.1°
Maximum altitude 18:40:46 56° 94° (E) 753 3.7 -9.9°
Drops below altitude 10° 18:45:09 10° 17° (NNE) 2,015 6.0 -10.7°
Sets 18:47:25 0° 13° (NNE) 2,923 6.9 -11.1°
